Location: Rimouski
(48.4330°N, 68.5170°W)
Time: 06:16:33
(UTC-04:00)

Envisat - Visible Passes

Search period start: 18 April 2019 00:00
Search period end: 28 April 2019 00:00
Orbit: 764 x 766 km, 98.2° (Epoch: 17 April)

Date Brightness Start Highest point End Pass type
(mag) Time Alt. Az. Time Alt. Az. Time Alt. Az.
19 Apr 6.1 20:45:03 10° WSW 20:46:55 12° W 20:48:48 10° WNW visible
20 Apr 5.5 20:05:35 10° SSW 20:09:42 25° W 20:13:51 10° NW visible
22 Apr 5.9 20:32:41 10° WSW 20:35:33 15° W 20:38:25 10° NW visible
25 Apr 5.7 20:20:40 10° SW 20:24:11 19° W 20:27:42 10° NW visible
27 Apr 6.2 20:48:51 10° W 20:50:04 11° W 20:51:17 10° WNW visible
